Rhodes, Greece

1:37 PM EET on November 23, 2017 (GMT +0200)
Diagoras

Weather History for LGRP - December, 2012

Change the Weather History Date:

Wednesday, December 26, 2012

  Actual Average Record
Temperature  
Mean Temperature 58 °F -  
Max Temperature 64 °F 59 °F 66 °F (2010)
Min Temperature 53 °F 48 °F 41 °F (2008)
Degree Days  
Heating Degree Days 6    
Growing Degree Days 8 (Base 50)    
Moisture  
Dew Point 52 °F    
Average Humidity 79    
Maximum Humidity 94    
Minimum Humidity 55    
Precipitation  
Precipitation 0.00 in 0.19 in - ()
Sea Level Pressure  
Sea Level Pressure 30.20 in    
Wind  
Wind Speed 4 mph ()    
Max Wind Speed 9 mph    
Max Gust Speed -    
Visibility 6.2 miles    
Events      
Averages and records for this station are not official NWS values.
T = Trace of Precipitation, MM = Missing Value Source: Averaged Metar Reports

Daily Weather History Graph

Daily Weather History Graph

Search for Another Location

Airport or City:

Trip Planner

Search our weather history database for the weather conditions in past years. The results will help you decide how hot, cold, wet, or windy it might be!

Date:

Astronomy

Dec. 26, 2012 Rise Set
Actual Time 7:17 AM EET 4:59 PM EET
Civil Twilight 6:49 AM EET 5:27 PM EET
Nautical Twilight 6:16 AM EET 6:00 PM EET
Astronomical Twilight 5:45 AM EET 6:31 PM EET
Moon 3:36 PM EET (12/26) 5:25 AM EET (12/26)
Length of Visible Light 10h 38m
Length of Day
9h 41m
Waxing Gibbous, 96% of the Moon is Illuminated
Dec 26
Waxing Gibbous
Dec 28
Full
Jan 5
Last Quarter
Jan 11
New
Jan 19
First Quarter

Hourly Weather History & Observations

Time (EET) Temp. Dew Point Humidity Pressure Visibility Wind Dir Wind Speed Gust Speed Precip Events Conditions
12:20 AM 55.4 °F 51.8 °F 88% 30.18 in - SSW 3.5 mph - N/A   Clear
12:50 AM 55.4 °F 51.8 °F 88% 30.15 in - SW 3.5 mph - N/A   Clear
1:20 AM 55.4 °F 51.8 °F 88% 30.15 in - SW 3.5 mph - N/A   Clear
1:50 AM 55.4 °F 51.8 °F 88% 30.18 in - Variable 2.3 mph - N/A   Clear
2:00 AM 56 °F 51 °F 79% 30.19 in 6 mi 2.3 mph - -  
2:20 AM 55.4 °F 51.8 °F 88% 30.18 in - Variable 2.3 mph - N/A   Clear
2:50 AM 55.4 °F 51.8 °F 88% 30.18 in - Variable 2.3 mph - N/A   Clear
3:20 AM 55.4 °F 51.8 °F 88% 30.18 in - Variable 3.5 mph - N/A   Clear
3:50 AM 55.4 °F 51.8 °F 88% 30.18 in - Calm Calm - N/A   Clear
4:20 AM 55.4 °F 51.8 °F 88% 30.18 in - Calm Calm - N/A   Clear
4:50 AM 57.2 °F 51.8 °F 82% 30.18 in - SSW 6.9 mph - N/A   Clear
5:20 AM 57.2 °F 51.8 °F 82% 30.18 in - SSW 6.9 mph - N/A   Clear
5:50 AM 57.2 °F 51.8 °F 82% 30.18 in - SSW 6.9 mph - N/A   Clear
6:20 AM 57.2 °F 51.8 °F 82% 30.18 in - SSW 6.9 mph - N/A   Clear
6:50 AM 57.2 °F 51.8 °F 82% 30.18 in 6.2 mi SSW 5.8 mph - N/A   Partly Cloudy
7:20 AM 57.2 °F 51.8 °F 82% 30.18 in 6.2 mi SSW 6.9 mph - N/A   Partly Cloudy
7:50 AM 57.2 °F 51.8 °F 82% 30.21 in 6.2 mi SSW 5.8 mph - N/A   Partly Cloudy
8:00 AM 57 °F 52 °F 77% 30.22 in 6 mi SSW 5.8 mph - -   Scattered Clouds
8:20 AM 57.2 °F 51.8 °F 82% 30.21 in 6.2 mi SSW 6.9 mph - N/A   Partly Cloudy
8:50 AM 59.0 °F 50.0 °F 72% 30.21 in 6.2 mi SSW 6.9 mph - N/A   Partly Cloudy
9:20 AM 59.0 °F 50.0 °F 72% 30.21 in 6.2 mi SSW 6.9 mph - N/A   Partly Cloudy
9:50 AM 62.6 °F 48.2 °F 59% 30.24 in 6.2 mi SSW 6.9 mph - N/A   Partly Cloudy
10:20 AM 62.6 °F 48.2 °F 59% 30.24 in 6.2 mi SSW 6.9 mph - N/A   Partly Cloudy
10:50 AM 62.6 °F 46.4 °F 55% 30.24 in 6.2 mi SSW 6.9 mph - N/A   Partly Cloudy
11:20 AM 62.6 °F 46.4 °F 55% 30.24 in 6.2 mi SSW 6.9 mph - N/A   Partly Cloudy
11:50 AM 64.4 °F 48.2 °F 56% 30.21 in 6.2 mi SW 6.9 mph - N/A   Partly Cloudy
12:20 PM 64.4 °F 48.2 °F 56% 30.21 in - SW 6.9 mph - N/A   Clear
12:50 PM 64.4 °F 48.2 °F 56% 30.21 in - WSW 9.2 mph - N/A   Clear
1:20 PM 64.4 °F 48.2 °F 56% 30.21 in 6.2 mi WSW 9.2 mph - N/A   Partly Cloudy
1:50 PM 64.4 °F 51.8 °F 64% 30.21 in 6.2 mi WSW 8.1 mph - N/A   Partly Cloudy
2:20 PM 64.4 °F 51.8 °F 64% 30.21 in 6.2 mi WSW 8.1 mph - N/A   Scattered Clouds
2:50 PM 64.4 °F 50.0 °F 59% 30.21 in 6.2 mi WSW 8.1 mph - N/A   Scattered Clouds
3:50 PM 62.6 °F 51.8 °F 68% 30.21 in 6.2 mi WSW 5.8 mph - N/A   Scattered Clouds
4:20 PM 62.6 °F 51.8 °F 68% 30.21 in 6.2 mi SSW 5.8 mph - N/A   Scattered Clouds
4:50 PM 60.8 °F 53.6 °F 77% 30.18 in 6.2 mi SSW 5.8 mph - N/A   Scattered Clouds
5:20 PM 60.8 °F 53.6 °F 77% 30.18 in 6.2 mi SSW 4.6 mph - N/A   Scattered Clouds
5:50 PM 60.8 °F 55.4 °F 82% 30.18 in 6.2 mi Variable 2.3 mph - N/A   Scattered Clouds
6:20 PM 60.8 °F 55.4 °F 82% 30.18 in 6.2 mi Variable 2.3 mph - N/A   Scattered Clouds
6:50 PM 57.2 °F 55.4 °F 94% 30.21 in 6.2 mi Calm Calm - N/A   Partly Cloudy
7:20 PM 57.2 °F 55.4 °F 94% 30.21 in 6.2 mi Calm Calm - N/A   Partly Cloudy
7:50 PM 57.2 °F 55.4 °F 94% 30.21 in 6.2 mi Calm Calm - N/A   Partly Cloudy
8:00 PM 57 °F 54 °F 88% 30.21 in 6 mi Calm Calm - -   Scattered Clouds
8:20 PM 57.2 °F 55.4 °F 94% 30.21 in 6.2 mi Calm Calm - N/A   Partly Cloudy
8:50 PM 57.2 °F 55.4 °F 94% 30.21 in 6.2 mi Calm Calm - N/A   Partly Cloudy
9:20 PM 57.2 °F 55.4 °F 94% 30.21 in 6.2 mi Calm Calm - N/A   Partly Cloudy
9:50 PM 55.4 °F 53.6 °F 94% 30.21 in 6.2 mi Variable 2.3 mph - N/A   Partly Cloudy
10:20 PM 55.4 °F 53.6 °F 94% 30.21 in 6.2 mi Variable 2.3 mph - N/A   Partly Cloudy
10:50 PM 53.6 °F 50.0 °F 88% 30.21 in 6.2 mi Variable 1.2 mph - N/A   Partly Cloudy
11:20 PM 53.6 °F 50.0 °F 88% 30.21 in 6.2 mi Variable 1.2 mph - N/A   Partly Cloudy
11:50 PM 53.6 °F 50.0 °F 88% 30.21 in 6.2 mi Variable 3.5 mph - N/A   Partly Cloudy